Location: Dreilärchen
(47.9312°N, 8.6113°E)
Time: 21:12:50
(UTC+00:00)

ATLAS 5 CENTAUR R/B - Pass Details

Date: 26 May 2022
Orbit: 342 x 13894 km, 60.8° (Epoch: 03 July)

Event Time Altitude Azimuth Distance (km) Brightness Sun altitude
Rises 00:01:45 0° 316° (NW) 8,803 8.4 -20.4°
Reaches altitude 10° 00:09:50 10° 314° (NW) 5,809 7.4 -20.2°
Maximum altitude 00:21:40 56° 241° (WSW) 1,173 3.1 -19.7°
Enters shadow 00:23:15 38° 185° (S) 1,206 3.0 -19.6°
